COSMOS 2442 (GLONASS)

Satellite information

Favourite Embed

Satellite Type and Status

PAYLOADIN ORBIT

Key statistics

Satellite COSMOS 2442 (GLONASS) at a glance.

Uptime

6130

Days in orbit

Revolutions

≈ 2.1

Per day

Orbit

MEO

Medium Earth Orbit

Inclination

65.7

Latest

Satellite identification and parameters

Extended collection of information and parameters for COSMOS 2442 (GLONASS).

Object identification

Identified? True

Debris? False

Object name: COSMOS 2442 (GLONASS)

International designator: 2008-046A

Object number (NORAD): 33378

Object ID (CCSDS): 33378

Country: COMMONWEALTH OF INDEPENDENT STATES (CIS)

Current information (Y/N): Y

RCS size: LARGE

Orbital parameters

Period: 675.713 minutes

Inclination: 65.6573 deg

SMA: 25507.528 km

Apoapsis: 19174.585 km

Periapsis: 19084.201 km

RAAN: 326.5252 deg

Eccentricy: 0.0017717

Argument of periapsis: 304.4753 deg

Mean anomaly: 62.7177 deg

Mean motion: 2.13108222 rev/day

Mean motion (dot): -0.00000076 rev/day2

B* drag term: 0.0 1/REarth

Two-line elements (TLE)

Creation date: July 6, 2025, 6:05 p.m.

Reference frame: TEME

Reference center: EARTH

Epoch: July 6, 2025, 9:15 a.m. UTC

TLE line 0: 0 COSMOS 2442 (GLONASS)

TLE line 1: 1 33378U 08046A 25187.38543903 -.00000076 00000-0 00000-0 0 9994

TLE line 2: 2 33378 65.6573 326.5252 0017717 304.4753 62.7177 2.13108222130580

Live tracking on map

Real-time ground track for satellite COSMOS 2442 (GLONASS).

In-orbit conjunctions

There are no conjunctions computed for COSMOS 2442 (GLONASS), at the moment. Check back to stay up to date, as we update our databases every day.

Go to all conjunctions

Associated space launch

GLONASS navigation satellites

COSMOS 2442 (GLONASS) was lifted into orbit during the mission ‘Proton-M | Uragan-M 15 to 17’, on board a Proton-M space rocket.

The launch took place on Sept. 25, 2008, 8:49 a.m. from 81/23 (81L).

For more information about the launch, click the button.

Launch to space Proton-M | Uragan-M 15 to 17
Proton-M | Uragan-M 15 to 17

Agency: N/A

Status: Launch Successful

Launch date: Sept. 25, 2008, 8:49 a.m. UTC

Rocket: Proton-M

Launch pad: 81/23 (81L)

Location: Baikonur Cosmodrome, Republic of Kazakhstan

...

Latest news about this satellite

There are no fresh news available about this satellite. Check back as we update our databases every day.


Newsletter sign-up

Weekly statistics, charts and insights to help you stay on top of the space industry.